Hibbing, MN

1:26 PM CDT on April 23, 2017 (GMT -0500)
Chisholm-hibbing

Weather History for KHIB - April, 2013

Change the Weather History Date:

Sunday, April 21, 2013

  Actual Average Record
Temperature  
Mean Temperature 28 °F -  
Max Temperature 37 °F 55 °F 89 °F (1980)
Min Temperature 19 °F 29 °F 17 °F (1991)
Degree Days  
Heating Degree Days 37    
Moisture  
Dew Point 26 °F    
Average Humidity 78    
Maximum Humidity 89    
Minimum Humidity 54    
Precipitation  
Precipitation 0.15 in - - ()
Sea Level Pressure  
Sea Level Pressure 30.12 in    
Wind  
Wind Speed 7 mph (SSE)    
Max Wind Speed 16 mph    
Max Gust Speed 23 mph    
Visibility 6 miles    
Events Fog , Rain , Snow    
Averages and records for this station are not official NWS values.
T = Trace of Precipitation, MM = Missing Value Source: NWS Daily Summary

Daily Weather History Graph

Daily Weather History Graph

Search for Another Location

Airport or City:

Trip Planner

Search our weather history database for the weather conditions in past years. The results will help you decide how hot, cold, wet, or windy it might be!

Date:

Astronomy

Apr. 21, 2013 Rise Set
Actual Time 6:11 AM CDT 8:09 PM CDT
Civil Twilight 5:38 AM CDT 8:42 PM CDT
Nautical Twilight 4:58 AM CDT 9:23 PM CDT
Astronomical Twilight 4:13 AM CDT 10:08 PM CDT
Moon 3:39 PM CDT (4/21) 3:52 AM CDT (4/21)
Length of Visible Light 15h 03m
Length of Day
13h 58m
Waxing Gibbous, 80% of the Moon is Illuminated
Apr 21
Waxing Gibbous
Apr 25
Full
May 2
Last Quarter
May 9
New
May 17
First Quarter

Hourly Weather History & Observations

Time (CDT) Temp. Windchill Dew Point Humidity Pressure Visibility Wind Dir Wind Speed Gust Speed Precip Events Conditions
12:53 AM 21.0 °F 13.4 °F 9.0 °F 60% 30.34 in 10.0 mi SE 5.8 mph - N/A   Clear
1:53 AM 21.0 °F 13.4 °F 10.9 °F 65% 30.34 in 10.0 mi SE 5.8 mph - N/A   Clear
2:53 AM 19.9 °F 12.1 °F 10.9 °F 68% 30.33 in 10.0 mi SE 5.8 mph - N/A   Scattered Clouds
3:53 AM 19.0 °F 11.1 °F 10.9 °F 71% 30.32 in 10.0 mi SE 5.8 mph - N/A   Mostly Cloudy
4:53 AM 21.0 °F 13.4 °F 12.0 °F 68% 30.31 in 10.0 mi SE 5.8 mph - N/A   Overcast
5:53 AM 23.0 °F 14.7 °F 12.9 °F 65% 30.29 in 10.0 mi SE 6.9 mph - N/A   Overcast
6:53 AM 25.0 °F 16.3 °F 12.9 °F 60% 30.28 in 10.0 mi SE 8.1 mph - N/A   Overcast
7:53 AM 28.9 °F 21.1 °F 14.0 °F 54% 30.27 in 10.0 mi SSE 8.1 mph - N/A   Overcast
8:53 AM 30.9 °F 22.2 °F 18.0 °F 59% 30.25 in 10.0 mi SSE 10.4 mph - N/A   Overcast
9:03 AM 30.2 °F 21.3 °F 19.4 °F 64% 30.19 in 10.0 mi SE 10.4 mph - N/A   Overcast
9:31 AM 32.0 °F 23.6 °F 21.2 °F 64% 30.18 in 7.0 mi SSE 10.4 mph 18.4 mph 0.00 in Snow Light Snow
9:53 AM 33.1 °F 24.4 °F 24.1 °F 70% 30.23 in 10.0 mi SE 11.5 mph 20.7 mph 0.00 in   Overcast
10:40 AM 35.6 °F 26.2 °F 24.8 °F 65% 30.15 in 10.0 mi SSE 15.0 mph 23.0 mph N/A   Overcast
10:53 AM 36.0 °F 26.3 °F 26.1 °F 67% 30.21 in 10.0 mi SSE 16.1 mph 23.0 mph N/A   Overcast
11:53 AM 36.0 °F 28.5 °F 27.0 °F 70% 30.19 in 10.0 mi SSE 10.4 mph 19.6 mph N/A   Overcast
12:53 PM 36.0 °F 27.5 °F 28.9 °F 76% 30.15 in 10.0 mi SE 12.7 mph 21.9 mph 0.00 in   Overcast
1:29 PM 35.6 °F 26.6 °F 28.4 °F 75% 30.07 in 10.0 mi SSE 13.8 mph - 0.00 in   Overcast
1:53 PM 37.0 °F 28.9 °F 28.9 °F 73% 30.12 in 10.0 mi SSE 12.7 mph 23.0 mph 0.00 in   Overcast
2:53 PM 37.0 °F 29.8 °F 28.9 °F 73% 30.10 in 10.0 mi SSE 10.4 mph - N/A   Overcast
3:53 PM 37.9 °F 30.9 °F 30.0 °F 73% 30.08 in 10.0 mi SSE 10.4 mph 17.3 mph 0.00 in   Overcast
4:53 PM 36.0 °F 31.1 °F 30.9 °F 82% 30.07 in 3.0 mi SSE 5.8 mph - 0.02 in Rain Light Rain
5:01 PM 35.6 °F 29.2 °F 30.2 °F 81% 30.01 in 2.5 mi SSE 8.1 mph - 0.01 in Snow Light Snow
5:16 PM 35.6 °F 31.7 °F 30.2 °F 81% 30.01 in 2.5 mi SSE 4.6 mph - 0.02 in Snow Light Snow
5:44 PM 33.8 °F 27.7 °F 30.2 °F 87% 30.00 in 1.2 mi SSE 6.9 mph - 0.04 in Snow Light Snow
5:53 PM 34.0 °F 28.0 °F 30.9 °F 89% 30.06 in 1.2 mi SSE 6.9 mph - 0.04 in Snow Light Snow
6:05 PM 33.8 °F 29.6 °F 30.2 °F 87% 30.00 in 0.8 mi SSE 4.6 mph - 0.01 in Snow Light Snow
6:19 PM 33.8 °F 29.6 °F 30.2 °F 87% 30.00 in 1.0 mi SSE 4.6 mph - 0.02 in Snow Light Snow
6:53 PM 34.0 °F 31.0 °F 30.9 °F 89% 30.06 in 0.5 mi SSE 3.5 mph - 0.05 in Fog , Snow Snow
7:43 PM 33.8 °F 30.8 °F 30.2 °F 87% 30.00 in 1.2 mi SSE 3.5 mph - 0.03 in Snow Light Snow
7:53 PM 34.0 °F 31.0 °F 30.9 °F 89% 30.06 in 2.5 mi SSE 3.5 mph - 0.03 in Snow Light Snow
8:13 PM 33.8 °F 29.6 °F 30.2 °F 87% 30.00 in 1.8 mi SSE 4.6 mph - 0.00 in Snow Light Snow
8:20 PM 33.8 °F 30.8 °F 30.2 °F 87% 30.01 in 3.0 mi South 3.5 mph - 0.00 in   Overcast
8:53 PM 34.0 °F 31.0 °F 30.9 °F 89% 30.06 in 3.0 mi South 3.5 mph - 0.00 in   Overcast
9:05 PM 33.8 °F - 30.2 °F 87% 30.02 in 2.5 mi Calm Calm - 0.01 in   Overcast
9:13 PM 33.8 °F - 30.2 °F 87% 30.02 in 2.0 mi Calm Calm - 0.01 in   Overcast
9:53 PM 34.0 °F - 30.9 °F 89% 30.09 in 2.5 mi Calm Calm - 0.01 in   Overcast
10:04 PM 33.8 °F - 30.2 °F 87% 30.04 in 3.0 mi Calm Calm - N/A   Overcast
10:13 PM 33.8 °F - 30.2 °F 87% 30.04 in 2.5 mi Calm Calm - N/A   Overcast
10:40 PM 33.8 °F - 30.2 °F 87% 30.04 in 2.5 mi Calm Calm - N/A   Overcast
10:53 PM 34.0 °F - 30.9 °F 89% 30.10 in 2.0 mi Calm Calm - N/A   Overcast
11:06 PM 33.8 °F 30.8 °F 30.2 °F 87% 30.05 in 2.5 mi WSW 3.5 mph - N/A   Overcast
11:15 PM 33.8 °F 30.8 °F 30.2 °F 87% 30.05 in 3.0 mi West 3.5 mph - N/A   Overcast
11:22 PM 33.8 °F 29.6 °F 30.2 °F 87% 30.05 in 2.5 mi West 4.6 mph - N/A   Overcast
11:29 PM 33.8 °F 27.7 °F 30.2 °F 87% 30.05 in 4.0 mi WNW 6.9 mph - N/A   Overcast
11:53 PM 35.1 °F 29.3 °F 30.9 °F 85% 30.11 in 8.0 mi WNW 6.9 mph - N/A   Overcast